Location: ?????????
(44.2517°N, 135.2292°E)
Time: 03:10:40
(UTC+00:00)

Cosmos 2298 Rocket - Pass Details

Date: 19 May 2025
Orbit: 773 x 782 km, 74.0° (Epoch: 19 June)

Event Time Altitude Azimuth Distance (km) Brightness Sun altitude
Rises 12:56:17 0° 339° (NNW) 3,278 8.8 -20.3°
Reaches altitude 10° 12:58:41 10° 340° (NNW) 2,346 7.7 -20.5°
Maximum altitude 13:04:02 86° 70° (ENE) 789 4.0 -21.0°
Enters shadow 13:05:39 46° 156° (SSE) 1,035 4.2 -21.1°
